sat.trackr.live / text

‹ back to catalog

STARLINK-5541

NORAD 56475 · 2023-064AD

PAYLOAD ACTIVE UNKNOWN

§ Identity

Operator
Country
US
Launch date
2023-05-10
Launch site
AFWTR
Launch vehicle
Mass (kg)
RCS (m²)

Purposes: comms

External: N2YO · Heavens-Above · Gunter

§ Orbital elements

Epoch: 2026-09-20T22:00:03.000096Z

Period
95.61 min
Inclination
70.0002°
Eccentricity
0.0004431
Mean motion
15.06050707 rev/d
Perigee alt
545.2 km
Apogee alt
551.4 km
Semi-major
6,926.4 km
B*
7.8557e-7
RAAN
352.1146°
Arg perigee
295.9895°
Mean anomaly
115.3976°
Rev number
576

§ Raw data

STARLINK-55411 56475U 23064AD  26263.91670139 -.00000089  00000+0  78557-6 0  99922 56475  70.0002 352.1146 0004431 295.9895 115.3976 15.06050707  5760

JSON: /api/v1/satellites/56475 · /tle

For live sub-satellite position, see the globe view (requires WebGL).

§ Visibility from observer

Set your observer location to see the next 7 days of passes ≥ 10°. The values pass through the URL so the page stays shareable.

No JS? Fill the form by hand. The geolocation button needs JavaScript.